SCP
0 0 0 0 -0 0 0 -0 0 -0 0 1 1 1 1 1 1 1 1 1 1 1 1 0 0 0 0 0 0 0 0 0 0 0 0 0 1 1 1 2 2 1 1 2
0 0 -0 -0 0 0 0 0 0 0 0 1 1 1 1 1 1 1 1 0 0 0 0 0 0 0 0 0 0 0 0 0 0 0 0 0 0 0 1 1 1 1 1 1
0 0 0 0 0 0 0 0 0 0 1 1 1 1 0 0 0 0 0 0 0 0 0 0 0 0 0 0 0 0 0 0 0 0 0 0 0 0 0 0 0 0 1 1
0 0 0 0 0 0 0 0 0 0 0 0 1 0 0 0 0 0 0 0 0 0 0 0 0 0 0 0 0 0 0 0 0 0 0 0 0 0 0 0 0 0 0 0
0 -0 0 0 0 0 0 0 0 0 0 0 0 0 0 0 0 0 0 0 0 0 0 0 0 0 0 0 0 0 0 0 0 0 0 0 0 0 0 0 0 0 0 0
0 0 0 0 0 0 0 -0 0 0 0 0 0 0 1 0 0 0 0 0 0 0 0 0 0 0 0 0 0 0 0 0 0 0 0 0 0 0 0 0 0 0 0 0
0 0 0 0 0 0 -0 0 0 0 0 0 0 1 1 0 0 0 0 0 0 0 0 0 0 0 0 0 0 0 0 0 0 0 0 0 0 0 0 0 0 0 0 0
0 0 0 0 0 0 0 0 0 0 0 0 1 0 0 0 0 0 0 0 0 0 0 0 0 0 0 0 0 0 0 0 0 0 0 0 0 0 0 0 0 0 0 0
1 0 0 0 0 0 0 0 0 0 0 0 0 0 0 0 0 0 0 0 0 0 0 0 0 0 0 0 0 0 0 0 0 0 0 0 0 0 0 0 0 0 0 0
0 0 0 0 0 0 0 0 0 0 0 0 0 0 0 0 0 0 0 0 0 0 0 0 0 0 0 0 0 0 0 0 0 0 0 0 0 0 0 0 0 0 0 -0
1 1 0 0 0 0 0 0 0 0 0 0 0 0 0 0 0 0 0 0 0 0 0 0 0 0 0 0 0 0 0 0 0 0 0 0 0 0 0 0 0 0 0 0
0 0 0 0 0 0 0 0 0 0 0 0 0 0 0 0 0 0 0 0 0 0 0 0 0 0 0 0 0 0 0 0 0 0 0 0 0 0 -0 0 0 0 0 0
0 0 0 0 0 0 0 0 0 0 0 0 0 0 0 0 0 0 0 0 0 0 0 0 0 0 0 0 0 0 0 0 0 0 0 0 0 0 0 0 0 0 0 0
0 0 0 0 0 0 0 0 0 0 0 0 0 0 0 0 0 0 0 0 0 0 0 0 0 0 0 0 0 0 0 0 0 0 0 0 0 0 0 0 0 0 0 0
0 0 0 0 0 0 0 0 0 0 0 0 0 0 0 0 0 0 0 0 0 0 0 0 0 0 0 0 0 0 0 0 0 0 0 0 0 0 -0 0 0 0 0 0
0 0 0 0 0 0 0 0 0 0 0 0 0 0 0 0 0 0 0 0 0 0 0 0 0 0 0 0 0 0 0 0 0 0 0 0 0 0 0 -0 0 0 -0 -0
0 0 0 0 0 0 0 0 0 0 0 0 0 0 0 0 0 0 0 0 0 0 0 0 0 0 0 0 0 0 0 0 0 0 0 0 0 -0 -0 -0 -0 -0 0 -0
0 0 0 0 0 0 0 0 0 0 0 0 0 0 0 0 0 0 0 0 0 0 0 0 0 0 0 0 0 0 0 0 0 0 0 0 0 0 0 0 -0 -0 -0 -0
0 0 0 0 0 0 0 0 0 0 0 0 0 0 0 0 0 0 0 0 0 0 0 0 0 0 0 0 0 -0 0 0 0 0 0 0 0 0 0 0 0 -0 -0 -0
0 0 0 0 0 0 0 0 0 0 0 0 0 0 0 0 0 0 0 0 0 0 0 0 0 0 0 0 0 0 0 0 0 0 0 0 0 0 0 0 0 0 -0 -0
0 0 0 0 0 0 0 0 0 0 0 0 0 0 0 0 0 0 0 0 0 0 0 0 0 0 0 0 0 0 0 0 0 0 0 0 0 0 -0 -0 -0 -0 -0 -0
0 0 0 0 0 0 0 0 0 0 0 0 0 0 0 0 0 0 0 0 0 0 0 0 0 0 0 0 0 0 0 0 0 0 0 0 0 0 0 0 -0 -0 -0 -0
0 0 0 0 0 0 0 0 0 0 0 0 0 0 0 0 -0 -0 0 0 0 0 -0 0 0 0 0 0 0 0 0 0 0 0 0 0 0 0 0 0 0 -0 -0 -0
0 0 0 0 0 0 0 0 0 0 0 0 0 0 -0 -0 0 0 0 0 0 0 0 0 0 0 0 0 0 0 0 0 0 0 0 0 0 0 0 0 0 0 0 -0
0 0 0 0 0 0 0 0 0 0 0 0 0 0 0 0 -0 -0 -0 -0 0 0 0 0 0 0 0 0 0 0 0 0 0 0 0 0 0 0 0 0 0 0 0 0
0 0 0 0 0 0 0 0 0 0 0 0 0 0 0 0 0 0 0 0 0 0 0 0 0 0 0 0 0 0 0 0 0 0 0 0 0 0 0 0 0 0 0 0
0 0 0 0 0 0 0 0 0 0 0 0 0 0 0 -0 0 0 0 0 0 0 0 0 0 0 0 0 0 0 0 0 0 0 0 0 0 0 0 0 0 0 0 0
Wind_Speed_500mb
22 20 35 22 35 4 15 25 21 27 19 21 19 18 18 21 23 18 19 17 17 16 14 11 16 16 16 18 23 25 26 25 24 28 30 32 31 32 34 41 43 44 42 39
16 24 26 39 4 2 4 12 12 19 14 21 25 22 19 21 22 19 19 14 13 11 7 5 12 17 19 22 24 24 25 25 26 27 28 29 33 36 38 40 42 45 51 53
22 19 13 18 20 9 12 4 12 14 21 20 20 23 22 20 19 19 15 10 7 5 8 11 16 19 22 23 24 24 23 23 26 32 34 34 33 31 34 39 44 49 51 50
10 12 22 21 15 14 3 9 4 3 13 15 23 23 23 20 18 15 10 5 6 10 14 16 19 21 23 23 24 24 26 27 30 32 33 34 36 38 41 41 42 44 47 53
10 28 18 23 21 14 4 9 7 13 17 22 27 28 20 16 14 9 6 7 10 14 16 15 18 21 21 22 24 25 30 33 36 37 39 39 41 43 44 43 44 46 46 46
21 25 11 22 26 17 9 10 18 18 21 25 27 19 22 18 10 6 6 10 14 16 14 18 20 23 22 24 27 31 36 39 37 36 41 44 48 52 53 51 46 45 48 51
9 25 21 19 26 22 6 13 12 11 20 22 13 21 29 17 8 5 8 11 14 14 16 18 21 24 25 28 32 39 44 40 41 41 39 38 44 46 49 50 53 57 50 43
10 16 19 23 21 1 15 15 14 13 18 20 23 21 17 10 5 7 9 11 13 13 15 18 23 26 29 31 41 46 38 36 39 41 44 46 47 52 54 53 50 46 47 37
13 14 25 22 23 19 16 18 16 21 19 22 23 16 10 6 5 7 9 11 12 14 16 19 23 25 28 31 42 44 42 44 44 42 41 41 46 50 54 53 52 53 45 41
19 14 15 20 21 18 19 20 22 23 24 22 18 13 8 4 3 5 9 11 13 16 18 21 23 23 24 31 38 42 45 45 41 42 46 45 44 45 49 50 48 49 48 43
15 14 16 16 16 22 23 26 28 25 21 18 15 9 8 8 9 10 10 11 14 16 18 21 23 23 25 31 36 39 37 39 41 41 46 45 44 48 48 45 44 42 37 37
8 33 10 32 25 27 31 31 29 28 23 16 13 13 16 17 14 11 9 11 13 16 19 22 23 24 26 29 35 35 36 36 38 38 37 42 48 52 44 51 38 36 40 37
26 25 25 33 33 32 32 30 27 23 20 20 19 21 21 18 13 13 9 12 14 15 18 21 23 24 27 29 28 32 33 34 35 36 36 41 42 48 56 53 55 48 42 41
29 31 35 36 39 34 33 30 27 23 21 21 23 22 19 14 13 9 10 11 13 14 17 19 22 25 27 28 30 28 32 40 39 35 37 40 39 40 42 53 56 53 65 65
30 9 26 35 37 36 33 30 26 23 23 24 22 19 16 14 9 8 8 9 10 13 16 19 21 26 28 29 30 29 29 30 38 34 36 40 39 41 36 42 46 46 50 58
17 28 38 41 40 37 33 27 23 22 23 23 20 18 14 11 8 5 6 8 11 15 18 20 23 26 29 31 30 27 27 33 39 33 35 36 38 38 42 40 42 44 51 57
37 39 42 41 39 35 28 21 21 24 24 22 20 16 12 10 10 7 9 8 9 12 14 18 22 23 29 37 25 27 28 30 34 33 34 35 37 37 39 41 41 42 42 51
30 35 36 36 35 31 25 22 25 26 25 22 19 15 12 11 10 10 6 3 4 3 10 14 24 25 25 34 29 29 31 32 33 33 34 36 37 37 38 40 41 42 44 45
36 36 33 31 29 27 26 26 28 27 26 21 17 14 12 10 12 8 3 3 5 8 13 17 27 24 24 30 37 23 32 35 35 35 36 37 37 37 38 39 41 41 41 42
37 34 33 30 27 28 29 30 30 27 21 19 16 13 12 11 10 5 6 10 8 11 18 20 26 21 23 24 36 25 28 33 35 36 38 40 41 40 39 39 41 39 40 40
39 37 34 31 30 30 31 32 29 25 20 17 13 13 13 10 8 9 14 18 6 8 21 29 27 19 25 27 34 28 28 32 34 36 36 39 41 42 41 40 41 39 40 40
38 35 33 33 34 33 31 29 25 23 20 17 13 14 12 9 9 11 13 10 11 18 22 24 19 24 28 33 31 26 32 33 34 36 35 35 36 39 41 40 41 39 40 40
35 34 34 33 33 33 30 27 24 22 20 18 15 12 5 2 4 9 10 4 15 22 23 17 24 23 26 34 27 28 33 39 41 43 38 41 39 32 38 38 39 40 41 40
37 35 34 33 34 33 31 26 23 21 20 18 13 8 4 9 1 2 8 14 14 18 14 16 24 29 31 33 32 42 44 49 54 47 46 43 41 36 30 32 35 37 39 40
37 36 36 35 34 31 28 26 23 21 18 14 11 8 6 4 5 6 7 9 18 21 24 27 34 32 28 30 35 40 42 44 45 47 41 44 35 36 36 35 31 35 36 38
38 35 34 32 28 26 25 24 24 21 17 17 12 7 6 6 7 7 10 15 18 24 31 33 33 34 29 36 35 36 38 42 39 40 42 39 39 41 43 38 31 31 34 35
33 34 33 28 25 22 23 22 22 18 13 10 9 9 8 6 7 6 12 17 21 24 28 30 33 32 37 37 28 32 36 40 38 42 44 42 43 42 37 36 26 34 37 34
Wind_Direction_500mb
167 236 83 351 259 167 293 333 332 352 53 85 67 99 127 143 131 136 126 106 107 92 70 34 23 358 3 341 332 327 322 322 317 318 315 311 311 303 296 285 276 272 266 263
154 198 181 200 123 317 339 320 297 313 60 83 101 113 133 132 135 136 127 117 108 110 85 6 346 338 336 331 325 325 330 331 331 327 321 319 308 292 284 284 281 279 275 267
215 208 223 237 187 175 21 302 352 326 82 118 123 122 134 141 143 134 130 118 86 39 1 343 338 335 328 329 327 328 328 327 320 306 313 311 300 295 294 289 282 278 277 274
232 186 220 81 78 73 360 22 328 97 128 139 135 133 141 147 141 132 119 86 24 354 344 337 332 330 330 331 331 338 346 342 337 327 320 317 316 314 308 298 281 278 279 276
146 201 137 149 145 152 188 134 149 127 141 135 144 136 133 129 128 116 71 25 359 343 337 337 340 341 346 348 350 345 340 338 332 331 328 325 320 317 312 305 299 291 275 274
224 262 299 103 115 106 86 270 125 134 157 160 166 216 131 147 131 96 30 359 348 344 344 345 350 351 354 350 348 344 339 333 333 334 336 337 331 330 325 319 308 298 290 273
164 246 117 121 134 128 235 96 135 147 162 169 187 63 126 137 117 63 19 359 3 355 355 354 352 354 356 352 346 340 337 345 342 334 332 331 332 331 329 327 319 317 310 299
177 46 255 144 146 97 104 139 134 146 154 149 122 130 130 124 86 31 12 6 5 0 1 358 354 357 356 352 341 341 339 339 334 337 339 341 334 338 341 339 333 323 325 310
44 18 121 118 88 117 128 135 148 147 148 148 151 145 140 110 55 25 26 30 17 14 5 359 354 358 355 340 348 351 350 346 343 340 341 335 335 341 344 345 343 338 328 323
150 178 131 100 113 118 135 140 139 146 147 154 147 150 144 115 71 57 54 39 21 14 3 357 353 353 350 343 355 355 359 358 352 351 344 344 342 340 339 345 344 338 333 332
97 117 119 130 131 137 135 138 138 140 142 140 143 141 153 135 118 95 65 34 22 15 6 360 355 354 348 339 340 346 353 350 352 354 355 353 354 349 346 340 342 344 342 332
325 148 188 157 155 151 146 144 143 138 130 124 137 140 136 129 116 96 63 36 23 14 5 360 358 355 346 343 345 350 350 346 348 352 354 354 356 360 10 359 345 337 331 319
122 136 128 149 154 155 152 149 147 139 132 127 128 132 130 125 117 96 61 34 18 9 1 360 358 354 351 351 346 349 343 342 346 345 347 349 351 354 360 5 15 9 347 333
129 127 133 151 154 155 152 146 140 134 131 131 132 129 128 123 109 90 55 25 11 7 360 357 355 351 351 350 348 349 344 348 349 344 346 346 346 348 350 354 356 2 17 19
146 130 156 152 150 151 152 149 143 137 135 133 134 133 132 127 113 82 43 20 18 16 9 4 0 354 354 352 347 348 341 337 346 344 342 346 347 350 356 351 356 356 358 8
165 142 149 154 155 157 157 157 151 147 147 144 141 137 134 129 119 90 71 58 62 42 30 23 15 9 3 355 349 350 347 342 349 346 344 342 344 342 349 346 347 351 5 9
152 151 157 156 159 160 163 161 158 157 154 150 147 143 140 139 138 123 108 86 64 50 32 22 15 12 7 360 360 355 353 346 345 345 343 341 342 344 344 346 348 348 342 356
162 159 160 160 160 159 158 157 156 156 156 155 151 146 141 148 150 145 129 94 13 316 2 352 352 10 357 358 8 5 358 353 350 348 346 343 343 342 342 343 346 347 347 351
151 152 151 154 156 158 158 156 155 155 155 155 152 154 154 156 158 163 193 290 292 317 0 344 324 344 338 337 358 353 357 357 357 354 351 350 347 346 344 343 344 344 346 349
145 142 145 147 152 156 155 155 154 154 155 156 159 163 166 171 180 209 264 265 266 319 329 328 320 323 328 328 335 321 338 347 349 351 350 353 350 349 346 346 346 346 346 346
141 142 143 147 150 151 153 155 154 154 155 157 162 175 180 187 210 245 267 290 190 295 326 322 320 310 329 324 328 327 329 336 338 340 342 346 347 348 346 346 345 347 347 346
144 144 147 149 148 149 154 154 155 155 155 155 153 158 166 185 223 240 248 270 311 314 323 328 329 323 319 318 321 319 327 328 325 325 329 332 343 344 346 345 344 344 343 342
148 149 149 151 152 152 151 155 156 156 157 158 156 158 175 278 299 315 315 200 315 305 317 322 326 331 328 325 322 315 316 318 320 316 316 315 324 332 336 340 343 343 341 340
148 148 150 151 152 151 153 156 158 158 158 158 161 173 236 316 304 323 336 333 333 332 320 306 314 322 326 326 316 323 323 321 320 323 326 312 316 318 319 330 336 340 342 344
148 149 151 154 153 156 158 159 159 162 166 179 188 214 228 238 289 307 333 334 329 325 328 316 311 315 319 319 326 320 318 326 324 323 327 313 303 310 305 318 326 332 340 342
150 153 158 157 158 161 166 171 177 179 187 196 204 218 250 261 255 287 311 308 313 323 322 326 326 326 311 316 318 320 327 332 332 331 333 325 318 315 315 313 315 326 330 334
152 156 157 160 166 169 172 174 177 178 201 214 236 252 247 222 217 279 293 319 330 326 330 337 334 335 331 322 320 326 325 332 334 334 332 324 320 318 311 308 310 313 319 320
Wind_Speed_850mb
22 20 35 22 35 4 15 25 21 27 19 21 19 18 18 21 23 18 19 17 17 16 14 11 16 16 16 18 23 25 26 25 24 28 30 32 31 32 34 41 43 44 42 39
16 24 26 39 4 2 4 12 12 19 14 21 25 22 19 21 22 19 19 14 13 11 7 5 12 17 19 22 24 24 25 25 26 27 28 29 33 36 38 40 42 45 51 53
22 19 13 18 20 9 12 4 12 14 21 20 20 23 22 20 19 19 15 10 7 5 8 11 16 19 22 23 24 24 23 23 26 32 34 34 33 31 34 39 44 49 51 50
10 12 22 21 15 14 3 9 4 3 13 15 23 23 23 20 18 15 10 5 6 10 14 16 19 21 23 23 24 24 26 27 30 32 33 34 36 38 41 41 42 44 47 53
10 28 18 23 21 14 4 9 7 13 17 22 27 28 20 16 14 9 6 7 10 14 16 15 18 21 21 22 24 25 30 33 36 37 39 39 41 43 44 43 44 46 46 46
21 25 11 22 26 17 9 10 18 18 21 25 27 19 22 18 10 6 6 10 14 16 14 18 20 23 22 24 27 31 36 39 37 36 41 44 48 52 53 51 46 45 48 51
9 25 21 19 26 22 6 13 12 11 20 22 13 21 29 17 8 5 8 11 14 14 16 18 21 24 25 28 32 39 44 40 41 41 39 38 44 46 49 50 53 57 50 43
10 16 19 23 21 1 15 15 14 13 18 20 23 21 17 10 5 7 9 11 13 13 15 18 23 26 29 31 41 46 38 36 39 41 44 46 47 52 54 53 50 46 47 37
13 14 25 22 23 19 16 18 16 21 19 22 23 16 10 6 5 7 9 11 12 14 16 19 23 25 28 31 42 44 42 44 44 42 41 41 46 50 54 53 52 53 45 41
19 14 15 20 21 18 19 20 22 23 24 22 18 13 8 4 3 5 9 11 13 16 18 21 23 23 24 31 38 42 45 45 41 42 46 45 44 45 49 50 48 49 48 43
15 14 16 16 16 22 23 26 28 25 21 18 15 9 8 8 9 10 10 11 14 16 18 21 23 23 25 31 36 39 37 39 41 41 46 45 44 48 48 45 44 42 37 37
8 33 10 32 25 27 31 31 29 28 23 16 13 13 16 17 14 11 9 11 13 16 19 22 23 24 26 29 35 35 36 36 38 38 37 42 48 52 44 51 38 36 40 37
26 25 25 33 33 32 32 30 27 23 20 20 19 21 21 18 13 13 9 12 14 15 18 21 23 24 27 29 28 32 33 34 35 36 36 41 42 48 56 53 55 48 42 41
29 31 35 36 39 34 33 30 27 23 21 21 23 22 19 14 13 9 10 11 13 14 17 19 22 25 27 28 30 28 32 40 39 35 37 40 39 40 42 53 56 53 65 65
30 9 26 35 37 36 33 30 26 23 23 24 22 19 16 14 9 8 8 9 10 13 16 19 21 26 28 29 30 29 29 30 38 34 36 40 39 41 36 42 46 46 50 58
17 28 38 41 40 37 33 27 23 22 23 23 20 18 14 11 8 5 6 8 11 15 18 20 23 26 29 31 30 27 27 33 39 33 35 36 38 38 42 40 42 44 51 57
37 39 42 41 39 35 28 21 21 24 24 22 20 16 12 10 10 7 9 8 9 12 14 18 22 23 29 37 25 27 28 30 34 33 34 35 37 37 39 41 41 42 42 51
30 35 36 36 35 31 25 22 25 26 25 22 19 15 12 11 10 10 6 3 4 3 10 14 24 25 25 34 29 29 31 32 33 33 34 36 37 37 38 40 41 42 44 45
36 36 33 31 29 27 26 26 28 27 26 21 17 14 12 10 12 8 3 3 5 8 13 17 27 24 24 30 37 23 32 35 35 35 36 37 37 37 38 39 41 41 41 42
37 34 33 30 27 28 29 30 30 27 21 19 16 13 12 11 10 5 6 10 8 11 18 20 26 21 23 24 36 25 28 33 35 36 38 40 41 40 39 39 41 39 40 40
39 37 34 31 30 30 31 32 29 25 20 17 13 13 13 10 8 9 14 18 6 8 21 29 27 19 25 27 34 28 28 32 34 36 36 39 41 42 41 40 41 39 40 40
38 35 33 33 34 33 31 29 25 23 20 17 13 14 12 9 9 11 13 10 11 18 22 24 19 24 28 33 31 26 32 33 34 36 35 35 36 39 41 40 41 39 40 40
35 34 34 33 33 33 30 27 24 22 20 18 15 12 5 2 4 9 10 4 15 22 23 17 24 23 26 34 27 28 33 39 41 43 38 41 39 32 38 38 39 40 41 40
37 35 34 33 34 33 31 26 23 21 20 18 13 8 4 9 1 2 8 14 14 18 14 16 24 29 31 33 32 42 44 49 54 47 46 43 41 36 30 32 35 37 39 40
37 36 36 35 34 31 28 26 23 21 18 14 11 8 6 4 5 6 7 9 18 21 24 27 34 32 28 30 35 40 42 44 45 47 41 44 35 36 36 35 31 35 36 38
38 35 34 32 28 26 25 24 24 21 17 17 12 7 6 6 7 7 10 15 18 24 31 33 33 34 29 36 35 36 38 42 39 40 42 39 39 41 43 38 31 31 34 35
33 34 33 28 25 22 23 22 22 18 13 10 9 9 8 6 7 6 12 17 21 24 28 30 33 32 37 37 28 32 36 40 38 42 44 42 43 42 37 36 26 34 37 34
Wind_Direction_850mb
167 236 83 351 259 167 293 333 332 352 53 85 67 99 127 143 131 136 126 106 107 92 70 34 23 358 3 341 332 327 322 322 317 318 315 311 311 303 296 285 276 272 266 263
154 198 181 200 123 317 339 320 297 313 60 83 101 113 133 132 135 136 127 117 108 110 85 6 346 338 336 331 325 325 330 331 331 327 321 319 308 292 284 284 281 279 275 267
215 208 223 237 187 175 21 302 352 326 82 118 123 122 134 141 143 134 130 118 86 39 1 343 338 335 328 329 327 328 328 327 320 306 313 311 300 295 294 289 282 278 277 274
232 186 220 81 78 73 360 22 328 97 128 139 135 133 141 147 141 132 119 86 24 354 344 337 332 330 330 331 331 338 346 342 337 327 320 317 316 314 308 298 281 278 279 276
146 201 137 149 145 152 188 134 149 127 141 135 144 136 133 129 128 116 71 25 359 343 337 337 340 341 346 348 350 345 340 338 332 331 328 325 320 317 312 305 299 291 275 274
224 262 299 103 115 106 86 270 125 134 157 160 166 216 131 147 131 96 30 359 348 344 344 345 350 351 354 350 348 344 339 333 333 334 336 337 331 330 325 319 308 298 290 273
164 246 117 121 134 128 235 96 135 147 162 169 187 63 126 137 117 63 19 359 3 355 355 354 352 354 356 352 346 340 337 345 342 334 332 331 332 331 329 327 319 317 310 299
177 46 255 144 146 97 104 139 134 146 154 149 122 130 130 124 86 31 12 6 5 0 1 358 354 357 356 352 341 341 339 339 334 337 339 341 334 338 341 339 333 323 325 310
44 18 121 118 88 117 128 135 148 147 148 148 151 145 140 110 55 25 26 30 17 14 5 359 354 358 355 340 348 351 350 346 343 340 341 335 335 341 344 345 343 338 328 323
150 178 131 100 113 118 135 140 139 146 147 154 147 150 144 115 71 57 54 39 21 14 3 357 353 353 350 343 355 355 359 358 352 351 344 344 342 340 339 345 344 338 333 332
97 117 119 130 131 137 135 138 138 140 142 140 143 141 153 135 118 95 65 34 22 15 6 360 355 354 348 339 340 346 353 350 352 354 355 353 354 349 346 340 342 344 342 332
325 148 188 157 155 151 146 144 143 138 130 124 137 140 136 129 116 96 63 36 23 14 5 360 358 355 346 343 345 350 350 346 348 352 354 354 356 360 10 359 345 337 331 319
122 136 128 149 154 155 152 149 147 139 132 127 128 132 130 125 117 96 61 34 18 9 1 360 358 354 351 351 346 349 343 342 346 345 347 349 351 354 360 5 15 9 347 333
129 127 133 151 154 155 152 146 140 134 131 131 132 129 128 123 109 90 55 25 11 7 360 357 355 351 351 350 348 349 344 348 349 344 346 346 346 348 350 354 356 2 17 19
146 130 156 152 150 151 152 149 143 137 135 133 134 133 132 127 113 82 43 20 18 16 9 4 0 354 354 352 347 348 341 337 346 344 342 346 347 350 356 351 356 356 358 8
165 142 149 154 155 157 157 157 151 147 147 144 141 137 134 129 119 90 71 58 62 42 30 23 15 9 3 355 349 350 347 342 349 346 344 342 344 342 349 346 347 351 5 9
152 151 157 156 159 160 163 161 158 157 154 150 147 143 140 139 138 123 108 86 64 50 32 22 15 12 7 360 360 355 353 346 345 345 343 341 342 344 344 346 348 348 342 356
162 159 160 160 160 159 158 157 156 156 156 155 151 146 141 148 150 145 129 94 13 316 2 352 352 10 357 358 8 5 358 353 350 348 346 343 343 342 342 343 346 347 347 351
151 152 151 154 156 158 158 156 155 155 155 155 152 154 154 156 158 163 193 290 292 317 0 344 324 344 338 337 358 353 357 357 357 354 351 350 347 346 344 343 344 344 346 349
145 142 145 147 152 156 155 155 154 154 155 156 159 163 166 171 180 209 264 265 266 319 329 328 320 323 328 328 335 321 338 347 349 351 350 353 350 349 346 346 346 346 346 346
141 142 143 147 150 151 153 155 154 154 155 157 162 175 180 187 210 245 267 290 190 295 326 322 320 310 329 324 328 327 329 336 338 340 342 346 347 348 346 346 345 347 347 346
144 144 147 149 148 149 154 154 155 155 155 155 153 158 166 185 223 240 248 270 311 314 323 328 329 323 319 318 321 319 327 328 325 325 329 332 343 344 346 345 344 344 343 342
148 149 149 151 152 152 151 155 156 156 157 158 156 158 175 278 299 315 315 200 315 305 317 322 326 331 328 325 322 315 316 318 320 316 316 315 324 332 336 340 343 343 341 340
148 148 150 151 152 151 153 156 158 158 158 158 161 173 236 316 304 323 336 333 333 332 320 306 314 322 326 326 316 323 323 321 320 323 326 312 316 318 319 330 336 340 342 344
148 149 151 154 153 156 158 159 159 162 166 179 188 214 228 238 289 307 333 334 329 325 328 316 311 315 319 319 326 320 318 326 324 323 327 313 303 310 305 318 326 332 340 342
150 153 158 157 158 161 166 171 177 179 187 196 204 218 250 261 255 287 311 308 313 323 322 326 326 326 311 316 318 320 327 332 332 331 333 325 318 315 315 313 315 326 330 334
152 156 157 160 166 169 172 174 177 178 201 214 236 252 247 222 217 279 293 319 330 326 330 337 334 335 331 322 320 326 325 332 334 334 332 324 320 318 311 308 310 313 319 320